Location: ????????
(41.2031°N, 22.5756°E)
Time: 15:31:18
(UTC+00:00)

Cosmos 1943 - Pass Details

Date: 01 December 2020
Orbit: 832 x 851 km, 71.0° (Epoch: 21 January)

Event Time Altitude Azimuth Distance (km) Brightness Sun altitude
Rises 16:05:57 0° 185° (S) 3,374 6.7 -11.9°
Reaches altitude 10° 16:08:27 10° 179° (S) 2,446 5.8 -12.4°
Maximum altitude 16:13:48 47° 107° (ESE) 1,108 3.5 -13.3°
Enters shadow 16:18:28 14° 38° (NE) 2,212 4.9 -14.2°
